Location: Newark
(36.1358°N, 115.1208°W)
Time: 03:31:02
(UTC+00:00)

ISS - Pass Details

Date: 19 January 2021
Orbit: 417 x 422 km, 51.6° (Epoch: 07 March)

Event Time Altitude Azimuth Distance (km) Brightness Sun altitude
Rises 01:18:56 0° 205° (SSW) 2,353 0.8 -5.7°
Reaches altitude 10° 01:21:11 10° 193° (SSW) 1,494 -0.5 -6.1°
Maximum altitude 01:24:07 28° 132° (SE) 811 -2.5 -6.6°
Drops below altitude 10° 01:27:05 10° 70° (ENE) 1,504 -1.6 -7.2°
Enters shadow 01:27:12 - 69° (ENE) 1,551 -1.6 -7.2°
